| time (UTC) | temp F | wind direction | speed MPH | gust MPH | rain 1hr in | rain 24hr in | rain mn in | humidity % | barometer mb |
| 20260506145629 | 75 | 166 | 5.0 | 6.0 | 0.00 | 0.00 | 0.00 | 74 | 1017.7 |
| 20260506145126 | 76 | 226 | 2.0 | 3.0 | 0.00 | 0.00 | 0.00 | 74 | 1017.9 |
| 20260506144624 | 75 | 179 | 4.0 | 5.0 | 0.00 | 0.00 | 0.00 | 75 | 1017.9 |
| 20260506144120 | 74 | 175 | 5.0 | 6.0 | 0.00 | 0.00 | 0.00 | 76 | 1018.0 |
| 20260506143618 | 74 | 219 | 2.0 | 3.0 | 0.00 | 0.00 | 0.00 | 77 | 1017.7 |
| 20260506143116 | 74 | 228 | 7.0 | 8.0 | 0.00 | 0.00 | 0.00 | 77 | 1017.9 |
| 20260506142614 | 73 | 187 | 5.0 | 7.0 | 0.00 | 0.00 | 0.00 | 78 | 1018.0 |
| 20260506142112 | 73 | 189 | 4.0 | 5.0 | 0.00 | 0.00 | 0.00 | 79 | 1017.8 |
| 20260506141609 | 72 | 156 | 6.0 | 7.0 | 0.00 | 0.00 | 0.00 | 81 | 1017.8 |
| 20260506141107 | 71 | 188 | 5.0 | 6.0 | 0.00 | 0.00 | 0.00 | 82 | 1017.7 |
| 20260506140604 | 71 | 189 | 2.0 | 2.0 | 0.00 | 0.00 | 0.00 | 83 | 1017.8 |
| 20260506135558 | 70 | 210 | 2.0 | 2.0 | 0.00 | 0.00 | 0.00 | 84 | 1017.9 |
| 20260506135054 | 70 | 216 | 4.0 | 5.0 | 0.00 | 0.00 | 0.00 | 84 | 1017.9 |
| 20260506134551 | 69 | 215 | 4.0 | 5.0 | 0.00 | 0.00 | 0.00 | 85 | 1017.9 |
| 20260506134047 | 69 | 199 | 5.0 | 6.0 | 0.00 | 0.00 | 0.00 | 86 | 1017.9 |
| 20260506133544 | 69 | 169 | 4.0 | 6.0 | 0.00 | 0.00 | 0.00 | 86 | 1018.2 |
| 20260506133041 | 68 | 214 | 3.0 | 3.0 | 0.00 | 0.00 | 0.00 | 87 | 1018.0 |
| 20260506132538 | 68 | 192 | 3.0 | 3.0 | 0.00 | 0.00 | 0.00 | 87 | 1017.9 |
| 20260506132036 | 68 | 192 | 5.0 | 6.0 | 0.00 | 0.00 | 0.00 | 87 | 1017.9 |
| 20260506131532 | 68 | 192 | 3.0 | 5.0 | 0.00 | 0.00 | 0.00 | 88 | 1018.0 |
| 20260506131029 | 68 | 215 | 5.0 | 6.0 | 0.00 | 0.00 | 0.00 | 88 | 1017.8 |
| 20260506130526 | 67 | 193 | 3.0 | 3.0 | 0.00 | 0.00 | 0.00 | 88 | 1017.7 |
| 20260506130023 | 67 | 194 | 3.0 | 5.0 | 0.00 | 0.00 | 0.00 | 89 | 1017.6 |
| 20260506125521 | 67 | 188 | 3.0 | 5.0 | 0.00 | 0.00 | 0.00 | 89 | 1017.2 |
| 20260506125019 | 67 | 187 | 4.0 | 6.0 | 0.00 | 0.00 | 0.00 | 89 | 1017.6 |
| 20260506124517 | 67 | 169 | 7.0 | 9.0 | 0.00 | 0.00 | 0.00 | 89 | 1017.5 |
| 20260506124014 | 66 | 197 | 3.0 | 6.0 | 0.00 | 0.00 | 0.00 | 89 | 1017.4 |
| 20260506123512 | 66 | 176 | 4.0 | 6.0 | 0.00 | 0.00 | 0.00 | 89 | 1017.6 |
| 20260506123010 | 66 | 181 | 3.0 | 6.0 | 0.00 | 0.00 | 0.00 | 89 | 1017.6 |
| 20260506122506 | 66 | 187 | 3.0 | 5.0 | 0.00 | 0.00 | 0.00 | 89 | 1017.6 |
| 20260506122005 | 66 | 187 | 5.0 | 7.0 | 0.00 | 0.00 | 0.00 | 89 | 1017.5 |
| 20260506121501 | 66 | 169 | 3.0 | 5.0 | 0.00 | 0.00 | 0.00 | 89 | 1017.5 |
| 20260506120958 | 66 | 186 | 4.0 | 6.0 | 0.00 | 0.00 | 0.00 | 89 | 1017.3 |
| 20260506120456 | 65 | 202 | 3.0 | 3.0 | 0.00 | 0.00 | 0.00 | 89 | 1017.1 |
| 20260506115953 | 65 | 188 | 2.0 | 2.0 | 0.00 | 0.00 | 0.00 | 89 | 1017.2 |
| 20260506115451 | 65 | 221 | 2.0 | 2.0 | 0.00 | 0.00 | 0.00 | 89 | 1017.1 |
| 20260506114949 | 65 | 186 | 4.0 | 5.0 | 0.00 | 0.00 | 0.00 | 90 | 1017.2 |
| 20260506114446 | 65 | 211 | 2.0 | 2.0 | 0.00 | 0.00 | 0.00 | 90 | 1017.3 |
| 20260506113944 | 64 | 188 | 3.0 | 5.0 | 0.00 | 0.00 | 0.00 | 91 | 1016.7 |
| 20260506113442 | 63 | 202 | 3.0 | 3.0 | 0.00 | 0.00 | 0.00 | 91 | 1016.8 |
| 20260506112938 | 63 | 173 | 3.0 | 3.0 | 0.00 | 0.00 | 0.00 | 92 | 1016.9 |
| 20260506112436 | 63 | 209 | 6.0 | 7.0 | 0.00 | 0.00 | 0.00 | 92 | 1016.9 |
| 20260506111933 | 62 | 198 | 3.0 | 5.0 | 0.00 | 0.00 | 0.00 | 92 | 1016.9 |
| 20260506111431 | 62 | 198 | 4.0 | 5.0 | 0.00 | 0.00 | 0.00 | 93 | 1017.1 |
| 20260506110928 | 62 | 204 | 1.0 | 2.0 | 0.00 | 0.00 | 0.00 | 93 | 1017.0 |
| 20260506110426 | 62 | 228 | 1.0 | 2.0 | 0.00 | 0.00 | 0.00 | 92 | 1016.8 |
| 20260506105922 | 62 | 204 | 1.0 | 1.0 | 0.00 | 0.00 | 0.00 | 92 | 1016.6 |
| 20260506105418 | 61 | 196 | 1.0 | 2.0 | 0.00 | 0.00 | 0.00 | 92 | 1016.9 |
| 20260506104916 | 61 | 210 | 1.0 | 1.0 | 0.00 | 0.00 | 0.00 | 92 | 1017.0 |
| 20260506104414 | 61 | 197 | 3.0 | 5.0 | 0.00 | 0.00 | 0.00 | 92 | 1017.0 |
| 20260506103911 | 61 | 213 | 1.0 | 2.0 | 0.00 | 0.00 | 0.00 | 92 | 1016.7 |
| 20260506103409 | 62 | 203 | 2.0 | 2.0 | 0.00 | 0.00 | 0.00 | 91 | 1016.9 |
| 20260506102905 | 62 | 206 | 3.0 | 3.0 | 0.00 | 0.00 | 0.00 | 91 | 1016.8 |
| 20260506102404 | 62 | 191 | 2.0 | 2.0 | 0.00 | 0.00 | 0.00 | 91 | 1016.8 |
| 20260506101901 | 62 | 200 | 4.0 | 5.0 | 0.00 | 0.00 | 0.00 | 91 | 1016.7 |
| 20260506101356 | 62 | 200 | 2.0 | 3.0 | 0.00 | 0.00 | 0.00 | 91 | 1016.7 |
| 20260506100854 | 62 | 187 | 4.0 | 6.0 | 0.00 | 0.00 | 0.00 | 91 | 1016.7 |
| 20260506100353 | 62 | 200 | 3.0 | 3.0 | 0.00 | 0.00 | 0.00 | 91 | 1017.1 |
| 20260506095850 | 62 | 193 | 2.0 | 2.0 | 0.00 | 0.00 | 0.00 | 91 | 1016.9 |
| 20260506095348 | 62 | 201 | 2.0 | 2.0 | 0.00 | 0.00 | 0.00 | 90 | 1016.8 |
| 20260506094844 | 62 | 212 | 0.0 | 0.0 | 0.00 | 0.00 | 0.00 | 90 | 1016.8 |
| 20260506094343 | 62 | 207 | 0.0 | 1.0 | 0.00 | 0.00 | 0.00 | 90 | 1016.6 |
| 20260506093841 | 62 | 208 | 1.0 | 1.0 | 0.00 | 0.00 | 0.00 | 90 | 1016.9 |
| 20260506093338 | 62 | 192 | 2.0 | 2.0 | 0.00 | 0.00 | 0.00 | 90 | 1016.9 |
| 20260506092835 | 62 | 201 | 1.0 | 1.0 | 0.00 | 0.00 | 0.00 | 90 | 1017.1 |
| 20260506092333 | 62 | 204 | 1.0 | 1.0 | 0.00 | 0.00 | 0.00 | 90 | 1016.9 |
| 20260506091830 | 62 | 187 | 2.0 | 2.0 | 0.00 | 0.00 | 0.00 | 90 | 1017.0 |
| 20260506091328 | 62 | 198 | 2.0 | 2.0 | 0.00 | 0.00 | 0.00 | 90 | 1017.1 |
| 20260506090825 | 62 | 192 | 2.0 | 2.0 | 0.00 | 0.00 | 0.00 | 90 | 1017.0 |
| 20260506090322 | 62 | 182 | 3.0 | 3.0 | 0.00 | 0.00 | 0.00 | 90 | 1017.2 |
| 20260506085819 | 62 | 179 | 4.0 | 5.0 | 0.00 | 0.00 | 0.00 | 90 | 1017.2 |
| 20260506085315 | 62 | 206 | 3.0 | 3.0 | 0.00 | 0.00 | 0.00 | 90 | 1017.5 |
| 20260506084812 | 62 | 208 | 3.0 | 5.0 | 0.00 | 0.00 | 0.00 | 90 | 1017.6 |
| 20260506084308 | 62 | 214 | 2.0 | 3.0 | 0.00 | 0.00 | 0.00 | 90 | 1017.5 |
| 20260506083805 | 61 | 213 | 1.0 | 1.0 | 0.00 | 0.00 | 0.00 | 90 | 1017.3 |
| 20260506083303 | 62 | 199 | 2.0 | 2.0 | 0.00 | 0.00 | 0.00 | 90 | 1017.4 |
| 20260506082800 | 62 | 191 | 2.0 | 3.0 | 0.00 | 0.00 | 0.00 | 90 | 1017.3 |
| 20260506082255 | 62 | 203 | 2.0 | 2.0 | 0.00 | 0.00 | 0.00 | 90 | 1017.2 |
| 20260506081753 | 62 | 200 | 3.0 | 5.0 | 0.00 | 0.00 | 0.00 | 90 | 1017.5 |
| 20260506081251 | 62 | 199 | 3.0 | 3.0 | 0.00 | 0.00 | 0.00 | 89 | 1017.4 |
| 20260506080749 | 61 | 210 | 4.0 | 5.0 | 0.00 | 0.00 | 0.00 | 89 | 1017.3 |
| 20260506080244 | 61 | 216 | 0.0 | 1.0 | 0.00 | 0.00 | 0.00 | 89 | 1017.2 |
| 20260506073229 | 62 | 199 | 3.0 | 3.0 | 0.00 | 0.00 | 0.00 | 88 | 1017.3 |
| 20260506072725 | 62 | 215 | 1.0 | 2.0 | 0.00 | 0.00 | 0.00 | 88 | 1017.3 |
| 20260506072223 | 62 | 207 | 0.0 | 1.0 | 0.00 | 0.00 | 0.00 | 87 | 1017.3 |
| 20260506071721 | 62 | 203 | 2.0 | 2.0 | 0.00 | 0.00 | 0.00 | 87 | 1017.1 |
| 20260506071218 | 62 | 203 | 3.0 | 3.0 | 0.00 | 0.00 | 0.00 | 87 | 1017.0 |
| 20260506070715 | 62 | 191 | 2.0 | 2.0 | 0.00 | 0.00 | 0.00 | 87 | 1017.2 |
| 20260506070212 | 62 | 203 | 1.0 | 2.0 | 0.00 | 0.00 | 0.00 | 87 | 1017.4 |
| 20260506062149 | 63 | 205 | 1.0 | 1.0 | 0.00 | 0.00 | 0.00 | 85 | 1017.3 |
| 20260506061645 | 63 | 209 | 0.0 | 0.0 | 0.00 | 0.00 | 0.00 | 85 | 1017.5 |
| 20260506061142 | 63 | 208 | 1.0 | 1.0 | 0.00 | 0.00 | 0.00 | 84 | 1017.3 |
| 20260506060641 | 64 | 203 | 1.0 | 1.0 | 0.00 | 0.00 | 0.00 | 84 | 1017.3 |
| 20260506060137 | 64 | 202 | 1.0 | 1.0 | 0.00 | 0.00 | 0.00 | 84 | 1017.1 |
| 20260506051109 | 65 | 180 | 2.0 | 3.0 | 0.00 | 0.00 | 0.00 | 82 | 1018.0 |
| 20260506050608 | 65 | 201 | 1.0 | 2.0 | 0.00 | 0.00 | 0.00 | 82 | 1018.1 |
| 20260506050105 | 65 | 210 | 2.0 | 2.0 | 0.00 | 0.00 | 0.00 | 82 | 1018.2 |
| 20260506045058 | 65 | 202 | 2.0 | 2.0 | 0.00 | 0.00 | 0.00 | 82 | 1018.1 |
| 20260506044556 | 65 | 203 | 1.0 | 2.0 | 0.00 | 0.00 | 0.00 | 82 | 1018.0 |
| 20260506044052 | 65 | 212 | 3.0 | 3.0 | 0.00 | 0.00 | 0.00 | 82 | 1017.9 |
| 20260506043549 | 65 | 214 | 4.0 | 5.0 | 0.00 | 0.00 | 0.00 | 82 | 1018.3 |
| 20260506043048 | 65 | 196 | 3.0 | 3.0 | 0.00 | 0.00 | 0.00 | 81 | 1017.9 |
| 20260506042547 | 65 | 193 | 3.0 | 5.0 | 0.00 | 0.00 | 0.00 | 81 | 1018.0 |
| 20260506042044 | 65 | 164 | 4.0 | 5.0 | 0.00 | 0.00 | 0.00 | 81 | 1018.2 |
| 20260506041543 | 65 | 195 | 3.0 | 3.0 | 0.00 | 0.00 | 0.00 | 81 | 1018.3 |
| 20260506041039 | 65 | 197 | 2.0 | 2.0 | 0.00 | 0.00 | 0.00 | 81 | 1018.3 |
| 20260506040537 | 65 | 200 | 2.0 | 2.0 | 0.00 | 0.00 | 0.00 | 81 | 1018.2 |
| 20260506040032 | 65 | 200 | 2.0 | 2.0 | 0.00 | 0.00 | 0.00 | 81 | 1018.0 |
| 20260506035530 | 65 | 154 | 4.0 | 5.0 | 0.00 | 0.00 | 0.00 | 80 | 1018.1 |
| 20260506035026 | 65 | 147 | 3.0 | 3.0 | 0.00 | 0.00 | 0.00 | 80 | 1017.9 |
| 20260506034524 | 65 | 139 | 6.0 | 7.0 | 0.00 | 0.00 | 0.00 | 80 | 1017.7 |
| 20260506034021 | 65 | 195 | 2.0 | 2.0 | 0.00 | 0.00 | 0.00 | 80 | 1018.0 |
| 20260506033518 | 65 | 202 | 2.0 | 3.0 | 0.00 | 0.00 | 0.00 | 80 | 1018.0 |
| 20260506033015 | 65 | 194 | 1.0 | 1.0 | 0.00 | 0.00 | 0.00 | 79 | 1017.9 |
| 20260506032513 | 65 | 182 | 3.0 | 3.0 | 0.00 | 0.00 | 0.00 | 79 | 1017.9 |
| 20260506032009 | 65 | 173 | 2.0 | 3.0 | 0.00 | 0.00 | 0.00 | 79 | 1018.4 |
| 20260506031507 | 66 | 185 | 2.0 | 2.0 | 0.00 | 0.00 | 0.00 | 79 | 1018.2 |
| 20260506031003 | 66 | 134 | 5.0 | 6.0 | 0.00 | 0.00 | 0.00 | 78 | 1018.3 |
| 20260506030501 | 66 | 188 | 2.0 | 2.0 | 0.00 | 0.00 | 0.00 | 78 | 1018.1 |
| 20260506025958 | 66 | 152 | 3.0 | 3.0 | 0.00 | 0.00 | 0.00 | 78 | 1018.5 |
| 20260506025455 | 66 | 189 | 2.0 | 2.0 | 0.00 | 0.00 | 0.00 | 77 | 1018.5 |
| 20260506024951 | 67 | 194 | 4.0 | 5.0 | 0.00 | 0.00 | 0.00 | 77 | 1018.5 |
| 20260506024448 | 67 | 192 | 5.0 | 7.0 | 0.00 | 0.00 | 0.00 | 76 | 1018.8 |
| 20260506023944 | 67 | 204 | 4.0 | 5.0 | 0.00 | 0.00 | 0.00 | 76 | 1018.5 |
| 20260506023441 | 67 | 200 | 1.0 | 2.0 | 0.00 | 0.00 | 0.00 | 76 | 1018.8 |
| 20260506022938 | 68 | 200 | 4.0 | 6.0 | 0.00 | 0.00 | 0.00 | 75 | 1018.7 |
| 20260506022436 | 68 | 189 | 3.0 | 5.0 | 0.00 | 0.00 | 0.00 | 75 | 1018.5 |
| 20260506021933 | 68 | 137 | 5.0 | 7.0 | 0.00 | 0.00 | 0.00 | 75 | 1018.4 |
| 20260506021430 | 68 | 191 | 3.0 | 5.0 | 0.00 | 0.00 | 0.00 | 75 | 1018.3 |
| 20260506020927 | 68 | 187 | 3.0 | 5.0 | 0.00 | 0.00 | 0.00 | 75 | 1018.3 |
| 20260506020425 | 68 | 126 | 4.0 | 6.0 | 0.00 | 0.00 | 0.00 | 74 | 1018.0 |
| 20260506015922 | 68 | 124 | 4.0 | 5.0 | 0.00 | 0.00 | 0.00 | 74 | 1018.1 |
| 20260506015420 | 69 | 173 | 4.0 | 5.0 | 0.00 | 0.00 | 0.00 | 73 | 1017.9 |
| 20260506014916 | 69 | 183 | 4.0 | 5.0 | 0.00 | 0.00 | 0.00 | 73 | 1018.0 |
| 20260506014413 | 69 | 148 | 3.0 | 3.0 | 0.00 | 0.00 | 0.00 | 72 | 1017.8 |
| 20260506013910 | 69 | 124 | 7.0 | 8.0 | 0.00 | 0.00 | 0.00 | 71 | 1017.6 |
| 20260506013408 | 69 | 160 | 5.0 | 7.0 | 0.00 | 0.00 | 0.00 | 71 | 1017.6 |
| 20260506012904 | 70 | 138 | 4.0 | 6.0 | 0.00 | 0.00 | 0.00 | 70 | 1017.4 |
| 20260506012401 | 70 | 161 | 3.0 | 3.0 | 0.00 | 0.00 | 0.00 | 70 | 1017.3 |
| 20260506011858 | 70 | 149 | 5.0 | 6.0 | 0.00 | 0.00 | 0.00 | 69 | 1017.4 |
| 20260506011355 | 70 | 143 | 6.0 | 8.0 | 0.00 | 0.00 | 0.00 | 69 | 1017.4 |
| 20260506010852 | 70 | 137 | 3.0 | 5.0 | 0.00 | 0.00 | 0.00 | 68 | 1017.2 |
| 20260506010350 | 71 | 152 | 5.0 | 6.0 | 0.00 | 0.00 | 0.00 | 68 | 1017.1 |
| 20260506005847 | 71 | 196 | 2.0 | 2.0 | 0.00 | 0.00 | 0.00 | 67 | 1017.3 |
| 20260506005343 | 71 | 164 | 4.0 | 5.0 | 0.00 | 0.00 | 0.00 | 66 | 1017.2 |
| 20260506004839 | 71 | 128 | 8.0 | 10.0 | 0.00 | 0.00 | 0.00 | 65 | 1017.1 |
| 20260506004337 | 72 | 165 | 3.0 | 5.0 | 0.00 | 0.00 | 0.00 | 64 | 1017.1 |
| 20260506003833 | 72 | 131 | 5.0 | 6.0 | 0.00 | 0.00 | 0.00 | 63 | 1016.8 |
| 20260506003329 | 72 | 141 | 4.0 | 5.0 | 0.00 | 0.00 | 0.00 | 63 | 1016.8 |
| 20260506002826 | 73 | 119 | 5.0 | 7.0 | 0.00 | 0.00 | 0.00 | 62 | 1017.1 |
| 20260506002323 | 73 | 144 | 7.0 | 9.0 | 0.00 | 0.00 | 0.00 | 61 | 1016.9 |
| 20260506001818 | 73 | 200 | 1.0 | 2.0 | 0.00 | 0.00 | 0.00 | 61 | 1016.8 |
| 20260506001316 | 74 | 182 | 3.0 | 5.0 | 0.00 | 0.00 | 0.00 | 61 | 1016.9 |
| 20260506000812 | 74 | 159 | 4.0 | 5.0 | 0.00 | 0.00 | 0.00 | 60 | 1016.7 |
| 20260506000310 | 74 | 187 | 5.0 | 8.0 | 0.00 | 0.00 | 0.00 | 60 | 1016.7 |
| 20260505235806 | 75 | 164 | 5.0 | 6.0 | 0.00 | 0.00 | 0.00 | 60 | 1016.6 |
| 20260505235305 | 75 | 178 | 6.0 | 7.0 | 0.00 | 0.00 | 0.00 | 60 | 1016.8 |
| 20260505234801 | 75 | 147 | 5.0 | 6.0 | 0.00 | 0.00 | 0.00 | 60 | 1016.5 |
| 20260505234259 | 76 | 115 | 5.0 | 8.0 | 0.00 | 0.00 | 0.00 | 59 | 1016.7 |
| 20260505233755 | 76 | 146 | 8.0 | 8.0 | 0.00 | 0.00 | 0.00 | 57 | 1016.7 |
| 20260505233253 | 77 | 140 | 5.0 | 6.0 | 0.00 | 0.00 | 0.00 | 56 | 1016.5 |
| 20260505232750 | 77 | 188 | 3.0 | 5.0 | 0.00 | 0.00 | 0.00 | 55 | 1016.5 |
| 20260505232248 | 77 | 187 | 3.0 | 3.0 | 0.00 | 0.00 | 0.00 | 54 | 1016.4 |
| 20260505231744 | 77 | 108 | 7.0 | 9.0 | 0.00 | 0.00 | 0.00 | 53 | 1016.1 |
| 20260505231243 | 77 | 185 | 3.0 | 5.0 | 0.00 | 0.00 | 0.00 | 53 | 1016.4 |
| 20260505230741 | 78 | 127 | 4.0 | 6.0 | 0.00 | 0.00 | 0.00 | 52 | 1016.5 |
| 20260505230237 | 78 | 184 | 5.0 | 7.0 | 0.00 | 0.00 | 0.00 | 52 | 1016.3 |
| 20260505225734 | 78 | 188 | 3.0 | 5.0 | 0.00 | 0.00 | 0.00 | 51 | 1016.2 |
| 20260505225231 | 78 | 138 | 5.0 | 6.0 | 0.00 | 0.00 | 0.00 | 50 | 1016.6 |
| 20260505224726 | 79 | 187 | 5.0 | 7.0 | 0.00 | 0.00 | 0.00 | 50 | 1016.3 |
| 20260505224224 | 79 | 191 | 4.0 | 5.0 | 0.00 | 0.00 | 0.00 | 48 | 1016.5 |
| 20260505223721 | 80 | 183 | 5.0 | 6.0 | 0.00 | 0.00 | 0.00 | 47 | 1016.5 |
| 20260505223217 | 80 | 205 | 4.0 | 5.0 | 0.00 | 0.00 | 0.00 | 46 | 1016.7 |
| 20260505222713 | 80 | 206 | 5.0 | 7.0 | 0.00 | 0.00 | 0.00 | 46 | 1016.5 |
| 20260505222209 | 80 | 189 | 4.0 | 6.0 | 0.00 | 0.00 | 0.00 | 45 | 1016.5 |
| 20260505221707 | 81 | 156 | 8.0 | 10.0 | 0.00 | 0.00 | 0.00 | 44 | 1016.6 |
| 20260505221203 | 81 | 198 | 3.0 | 3.0 | 0.00 | 0.00 | 0.00 | 44 | 1016.5 |
| 20260505220701 | 80 | 213 | 2.0 | 3.0 | 0.00 | 0.00 | 0.00 | 44 | 1016.4 |
| 20260505220159 | 80 | 231 | 4.0 | 6.0 | 0.00 | 0.00 | 0.00 | 43 | 1016.6 |
| 20260505215656 | 81 | 235 | 3.0 | 3.0 | 0.00 | 0.00 | 0.00 | 43 | 1016.5 |
| 20260505215154 | 81 | 186 | 6.0 | 8.0 | 0.00 | 0.00 | 0.00 | 43 | 1016.7 |
| 20260505214651 | 81 | 191 | 5.0 | 7.0 | 0.00 | 0.00 | 0.00 | 43 | 1016.6 |
| 20260505214148 | 81 | 195 | 5.0 | 8.0 | 0.00 | 0.00 | 0.00 | 45 | 1016.8 |
| 20260505213646 | 80 | 162 | 5.0 | 7.0 | 0.00 | 0.00 | 0.00 | 45 | 1016.5 |
| 20260505213143 | 81 | 231 | 8.0 | 14.0 | 0.00 | 0.00 | 0.00 | 45 | 1016.8 |
| 20260505212638 | 80 | 198 | 4.0 | 5.0 | 0.00 | 0.00 | 0.00 | 49 | 1016.6 |
| 20260505212136 | 80 | 187 | 6.0 | 7.0 | 0.00 | 0.00 | 0.00 | 49 | 1016.7 |
| 20260505211633 | 80 | 204 | 7.0 | 9.0 | 0.00 | 0.00 | 0.00 | 47 | 1016.7 |
| 20260505211130 | 80 | 172 | 4.0 | 5.0 | 0.00 | 0.00 | 0.00 | 49 | 1016.8 |
| 20260505210627 | 80 | 174 | 5.0 | 8.0 | 0.00 | 0.00 | 0.00 | 49 | 1016.9 |
| 20260505210123 | 80 | 215 | 1.0 | 1.0 | 0.00 | 0.00 | 0.00 | 48 | 1016.9 |
| 20260505205621 | 81 | 222 | 11.0 | 14.0 | 0.00 | 0.00 | 0.00 | 46 | 1016.8 |
| 20260505205119 | 81 | 178 | 10.0 | 10.0 | 0.00 | 0.00 | 0.00 | 46 | 1017.0 |
| 20260505204616 | 80 | 179 | 7.0 | 8.0 | 0.00 | 0.00 | 0.00 | 48 | 1016.8 |
| 20260505204113 | 82 | 203 | 8.0 | 10.0 | 0.00 | 0.00 | 0.00 | 47 | 1017.2 |
| 20260505203610 | 81 | 173 | 5.0 | 6.0 | 0.00 | 0.00 | 0.00 | 50 | 1016.8 |
| 20260505203107 | 81 | 146 | 7.0 | 10.0 | 0.00 | 0.00 | 0.00 | 49 | 1017.1 |
| 20260505202603 | 81 | 149 | 7.0 | 9.0 | 0.00 | 0.00 | 0.00 | 49 | 1016.8 |
| 20260505202059 | 81 | 131 | 9.0 | 10.0 | 0.00 | 0.00 | 0.00 | 49 | 1016.9 |
| 20260505201555 | 81 | 129 | 7.0 | 8.0 | 0.00 | 0.00 | 0.00 | 50 | 1017.4 |
| 20260505201054 | 81 | 183 | 7.0 | 10.0 | 0.00 | 0.00 | 0.00 | 49 | 1017.3 |
| 20260505200551 | 82 | 185 | 6.0 | 8.0 | 0.00 | 0.00 | 0.00 | 46 | 1017.1 |
| 20260505200048 | 82 | 157 | 7.0 | 8.0 | 0.00 | 0.00 | 0.00 | 47 | 1017.3 |
| 20260505195544 | 82 | 205 | 3.0 | 5.0 | 0.00 | 0.00 | 0.00 | 46 | 1017.3 |
| 20260505195042 | 81 | 203 | 6.0 | 8.0 | 0.00 | 0.00 | 0.00 | 47 | 1017.5 |
| 20260505194539 | 82 | 152 | 9.0 | 10.0 | 0.00 | 0.00 | 0.00 | 47 | 1017.6 |
| 20260505194034 | 82 | 196 | 4.0 | 6.0 | 0.00 | 0.00 | 0.00 | 48 | 1017.6 |
| 20260505193531 | 82 | 179 | 5.0 | 6.0 | 0.00 | 0.00 | 0.00 | 46 | 1017.7 |
| 20260505193028 | 81 | 142 | 4.0 | 6.0 | 0.00 | 0.00 | 0.00 | 48 | 1017.5 |
| 20260505192527 | 81 | 213 | 2.0 | 2.0 | 0.00 | 0.00 | 0.00 | 50 | 1017.9 |
| 20260505192024 | 81 | 195 | 3.0 | 3.0 | 0.00 | 0.00 | 0.00 | 50 | 1017.9 |
| 20260505191522 | 81 | 106 | 5.0 | 6.0 | 0.00 | 0.00 | 0.00 | 49 | 1018.0 |
| 20260505191020 | 81 | 182 | 4.0 | 6.0 | 0.00 | 0.00 | 0.00 | 47 | 1018.0 |
| 20260505190514 | 81 | 214 | 8.0 | 9.0 | 0.00 | 0.00 | 0.00 | 46 | 1018.0 |
| 20260505190011 | 80 | 138 | 5.0 | 6.0 | 0.00 | 0.00 | 0.00 | 51 | 1017.9 |
| 20260505185508 | 80 | 231 | 6.0 | 11.0 | 0.00 | 0.00 | 0.00 | 49 | 1018.1 |
| 20260505185004 | 81 | 194 | 2.0 | 2.0 | 0.00 | 0.00 | 0.00 | 51 | 1018.2 |
| 20260505184501 | 80 | 122 | 7.0 | 11.0 | 0.00 | 0.00 | 0.00 | 51 | 1018.1 |
| 20260505183957 | 80 | 213 | 8.0 | 10.0 | 0.00 | 0.00 | 0.00 | 50 | 1018.4 |
| 20260505183455 | 79 | 151 | 4.0 | 5.0 | 0.00 | 0.00 | 0.00 | 53 | 1018.1 |
| 20260505182951 | 80 | 156 | 4.0 | 5.0 | 0.00 | 0.00 | 0.00 | 51 | 1018.3 |
| 20260505182448 | 80 | 175 | 7.0 | 8.0 | 0.00 | 0.00 | 0.00 | 52 | 1018.5 |
| 20260505181944 | 79 | 111 | 5.0 | 6.0 | 0.00 | 0.00 | 0.00 | 52 | 1018.5 |
| 20260505181442 | 80 | 114 | 11.0 | 14.0 | 0.00 | 0.00 | 0.00 | 50 | 1018.4 |
| 20260505180938 | 80 | 182 | 4.0 | 6.0 | 0.00 | 0.00 | 0.00 | 50 | 1018.4 |
| 20260505180435 | 80 | 196 | 3.0 | 3.0 | 0.00 | 0.00 | 0.00 | 51 | 1018.4 |
| 20260505175932 | 79 | 206 | 5.0 | 6.0 | 0.00 | 0.00 | 0.00 | 52 | 1018.4 |
| 20260505175428 | 80 | 153 | 8.0 | 9.0 | 0.00 | 0.00 | 0.00 | 50 | 1018.6 |
| 20260505174924 | 79 | 186 | 5.0 | 9.0 | 0.00 | 0.00 | 0.00 | 54 | 1018.2 |
| 20260505174422 | 79 | 155 | 4.0 | 5.0 | 0.00 | 0.00 | 0.00 | 54 | 1018.5 |
| 20260505173918 | 80 | 194 | 5.0 | 6.0 | 0.00 | 0.00 | 0.00 | 53 | 1018.4 |
| 20260505173414 | 79 | 157 | 2.0 | 2.0 | 0.00 | 0.00 | 0.00 | 54 | 1018.7 |
| 20260505172911 | 79 | 153 | 6.0 | 7.0 | 0.00 | 0.00 | 0.00 | 54 | 1018.7 |
| 20260505172409 | 78 | 228 | 2.0 | 3.0 | 0.00 | 0.00 | 0.00 | 57 | 1018.7 |
| 20260505171909 | 78 | 98 | 5.0 | 7.0 | 0.00 | 0.00 | 0.00 | 57 | 1018.9 |
| 20260505171406 | 79 | 198 | 6.0 | 8.0 | 0.00 | 0.00 | 0.00 | 55 | 1018.8 |
| 20260505170902 | 79 | 249 | 4.0 | 6.0 | 0.00 | 0.00 | 0.00 | 55 | 1019.0 |
| 20260505170359 | 79 | 205 | 6.0 | 9.0 | 0.00 | 0.00 | 0.00 | 53 | 1019.3 |
| 20260505165855 | 78 | 201 | 3.0 | 3.0 | 0.00 | 0.00 | 0.00 | 56 | 1019.2 |
| 20260505165350 | 78 | 204 | 5.0 | 7.0 | 0.00 | 0.00 | 0.00 | 57 | 1019.5 |
| 20260505164846 | 78 | 184 | 7.0 | 9.0 | 0.00 | 0.00 | 0.00 | 57 | 1019.6 |
| 20260505164343 | 78 | 199 | 3.0 | 5.0 | 0.00 | 0.00 | 0.00 | 57 | 1019.3 |
| 20260505163841 | 78 | 142 | 5.0 | 6.0 | 0.00 | 0.00 | 0.00 | 58 | 1019.3 |
| 20260505163340 | 78 | 131 | 7.0 | 9.0 | 0.00 | 0.00 | 0.00 | 57 | 1019.3 |
| 20260505162838 | 78 | 117 | 4.0 | 5.0 | 0.00 | 0.00 | 0.00 | 57 | 1019.6 |
| 20260505162334 | 77 | 159 | 6.0 | 7.0 | 0.00 | 0.00 | 0.00 | 59 | 1019.7 |
| 20260505161831 | 77 | 159 | 4.0 | 6.0 | 0.00 | 0.00 | 0.00 | 58 | 1019.8 |
| 20260505161328 | 77 | 195 | 4.0 | 6.0 | 0.00 | 0.00 | 0.00 | 57 | 1019.7 |
| 20260505160825 | 77 | 155 | 7.0 | 8.0 | 0.00 | 0.00 | 0.00 | 56 | 1019.5 |
| 20260505160323 | 77 | 208 | 3.0 | 6.0 | 0.00 | 0.00 | 0.00 | 57 | 1019.7 |
| 20260505153302 | 76 | 176 | 6.0 | 7.0 | 0.00 | 0.00 | 0.00 | 62 | 1019.7 |
| 20260505152759 | 76 | 140 | 5.0 | 6.0 | 0.00 | 0.00 | 0.00 | 63 | 1019.9 |
| 20260505152255 | 75 | 225 | 1.0 | 3.0 | 0.00 | 0.00 | 0.00 | 63 | 1020.0 |
| 20260505151750 | 75 | 186 | 7.0 | 8.0 | 0.00 | 0.00 | 0.00 | 62 | 1020.0 |
| 20260505151248 | 74 | 143 | 5.0 | 6.0 | 0.00 | 0.00 | 0.00 | 62 | 1020.0 |
| 20260505150744 | 74 | 144 | 3.0 | 5.0 | 0.00 | 0.00 | 0.00 | 62 | 1019.9 |
| 20260505150241 | 73 | 195 | 5.0 | 7.0 | 0.00 | 0.00 | 0.00 | 65 | 1020.0 |